Terminal Aerodrome Forecast
Issued by NWS

Home | Current Version | Previous Version | Text Only | Print | Product List | Glossary On
Versions: 1 2 3 4 5 6 7 8 9 10 11 12 13 14 15 16 17
000
FTUS41 KBTV 191700
TAFPBG
TAF
KPBG 191728Z 1918/2018 33012G20KT P6SM BKN045
     FM200000 33004KT P6SM SKC
     FM201400 13009KT P6SM SKC=

USA.gov is the U.S. government's official web portal to all federal, state and local government web resources and services.